CST,Max TemperatureF,Mean TemperatureF,Min TemperatureF,Max Dew PointF,MeanDew PointF,Min DewpointF,Max Humidity, Mean Humidity, Min Humidity, Max Sea Level PressureIn, Mean Sea Level PressureIn, Min Sea Level PressureIn, Max VisibilityMiles, Mean VisibilityMiles, Min VisibilityMiles, Max Wind SpeedMPH, Mean Wind SpeedMPH, Max Gust SpeedMPH,PrecipitationIn, CloudCover, Events, WindDirDegrees
2013-12-1,58,48,37,39,34,27,85,64,42,30.18,30.06,29.92,10,10,5,9,4,13,0.00,5,,209
2013-12-2,61,49,36,46,41,34,93,77,60,29.90,29.80,29.72,10,7,2,10,3,12,0.00,5,,161
2013-12-3,65,54,43,52,49,41,96,76,56,29.76,29.73,29.69,10,5,2,12,6,15,0.00,6,,159
2013-12-4,74,65,55,61,58,52,93,75,57,29.79,29.70,29.64,10,7,3,18,9,31,T,7,,188
2013-12-5,67,49,31,61,34,27,85,78,70,30.21,30.08,29.79,10,8,3,20,11,24,0.22,8,Rain-Snow,3
2013-12-6,32,27,22,28,22,16,92,87,81,30.51,30.28,30.16,10,4,0,21,14,28,1.32,8,Fog-Rain-Snow,11
2013-12-7,26,20,13,17,13,7,77,72,67,30.66,30.55,30.41,10,10,9,17,11,24,0.00,4,,24
2013-12-8,33,28,23,31,25,17,92,83,74,30.39,30.18,30.05,9,4,1,16,7,25,0.03,8,Rain-Snow,70
2013-12-9,33,27,21,27,22,16,92,77,61,30.30,30.24,30.14,10,8,2,13,7,16,T,6,Snow,308
2013-12-10,33,26,19,22,20,16,91,76,61,30.40,30.35,30.25,10,9,2,15,7,19,T,2,Snow,251
2013-12-11,39,27,15,27,20,12,92,76,59,30.64,30.48,30.38,10,8,4,15,7,19,0.00,0,,305
2013-12-12,32,21,9,13,10,5,76,58,39,30.65,30.55,30.39,10,10,10,10,3,14,0.00,0,,261
2013-12-13,41,29,16,33,22,12,80,62,44,30.36,30.19,29.99,10,10,6,13,5,19,0.08,4,Rain,157
2013-12-14,39,36,33,36,33,28,100,88,75,30.12,29.91,29.81,10,5,0,17,8,23,0.84,8,Fog-Rain,317
2013-12-15,34,32,30,29,26,23,85,79,72,30.26,30.18,30.11,10,8,6,16,8,20,0.00,7,,271
2013-12-16,50,42,34,38,33,29,89,71,52,30.13,30.09,30.05,10,9,5,16,8,21,0.00,1,,224
2013-12-17,46,36,26,35,29,23,92,73,53,30.31,30.20,30.09,10,8,2,13,6,17,0.00,0,,294
2013-12-18,51,37,22,32,24,20,88,60,31,30.35,30.22,30.08,10,10,10,13,6,20,0.00,0,,197
2013-12-19,61,54,46,49,42,32,72,64,55,30.09,30.01,29.90,10,10,10,18,11,28,0.00,3,,192
2013-12-20,65,62,58,61,57,49,87,76,64,29.91,29.86,29.80,10,9,2,18,11,30,0.19,8,Rain,193
2013-12-21,67,54,41,62,51,38,93,90,86,29.77,29.63,29.47,10,4,1,18,9,27,5.26,8,Rain-Thunderstorm,45
2013-12-22,49,42,35,45,39,29,96,86,75,30.23,29.94,29.68,10,7,2,16,9,21,T,8,,277
2013-12-23,35,31,27,29,23,17,82,69,56,30.52,30.43,30.25,10,10,7,15,7,19,0.00,6,,334
2013-12-24,28,22,15,18,11,5,74,60,45,30.65,30.55,30.43,10,9,3,16,6,21,T,3,Snow,3
2013-12-25,45,32,18,29,21,13,85,63,41,30.43,30.36,30.29,10,10,10,16,6,19,0.00,2,,218
2013-12-26,46,34,22,30,26,22,88,67,45,30.45,30.39,30.33,10,9,4,9,5,13,0.00,1,,236
2013-12-27,53,39,24,32,28,21,88,66,44,30.46,30.39,30.34,10,10,7,10,4,15,0.00,0,,217
2013-12-28,50,39,28,38,31,25,92,67,42,30.33,30.19,29.97,10,9,1,10,5,13,0.01,3,Rain,183
2013-12-29,50,38,26,40,34,19,93,80,66,30.23,30.01,29.92,10,7,2,21,10,26,0.19,6,Rain,273
2013-12-30,31,25,19,19,15,12,84,67,49,30.34,30.30,30.23,10,10,10,14,6,17,0.00,4,,334
2013-12-31,43,32,20,26,22,16,84,64,43,30.46,30.36,30.29,10,10,10,9,5,14,0.00,0,,214